TimeEST,TemperatureF,Dew PointF,Humidity,Sea Level PressureIn,VisibilityMPH,Wind Direction,Wind SpeedMPH,Gust SpeedMPH,PrecipitationIn,Events,Conditions,WindDirDegrees,DateUTC
12:26 AM,69.8,69.8,100,30.20,10.0,North,11.5,-,N/A,,Mostly Cloudy,10,2013-01-05 05:26:00
12:34 AM,69.8,69.8,100,30.20,10.0,North,9.2,-,N/A,,Scattered Clouds,10,2013-01-05 05:34:00
12:53 AM,71.1,69.1,93,30.20,10.0,NNE,8.1,-,N/A,,Clear,20,2013-01-05 05:53:00
1:53 AM,71.1,69.1,93,30.18,10.0,NE,4.6,-,N/A,,Clear,40,2013-01-05 06:53:00
2:53 AM,71.1,69.1,93,30.17,10.0,NNE,3.5,-,N/A,,Clear,20,2013-01-05 07:53:00
3:53 AM,71.1,69.1,93,30.17,10.0,NE,3.5,-,N/A,,Clear,50,2013-01-05 08:53:00
4:53 AM,71.1,70.0,96,30.16,10.0,ENE,3.5,-,N/A,,Clear,70,2013-01-05 09:53:00
5:36 AM,71.6,69.8,94,30.17,10.0,NE,4.6,-,N/A,,Scattered Clouds,50,2013-01-05 10:36:00
5:53 AM,72.0,70.0,93,30.17,10.0,NE,3.5,-,N/A,,Mostly Cloudy,40,2013-01-05 10:53:00
6:09 AM,71.6,71.6,100,30.17,10.0,East,4.6,-,N/A,,Partly Cloudy,80,2013-01-05 11:09:00
6:53 AM,72.0,71.1,97,30.18,10.0,East,5.8,-,N/A,,Clear,80,2013-01-05 11:53:00
7:53 AM,73.9,71.1,91,30.19,10.0,NE,3.5,-,N/A,,Clear,40,2013-01-05 12:53:00
8:53 AM,75.0,71.1,87,30.21,10.0,NNE,6.9,-,N/A,,Mostly Cloudy,30,2013-01-05 13:53:00
9:02 AM,73.4,71.6,94,30.21,9.0,NNE,9.2,-,N/A,,Mostly Cloudy,30,2013-01-05 14:02:00
9:21 AM,73.4,71.6,94,30.22,7.0,NNE,6.9,-,N/A,,Overcast,20,2013-01-05 14:21:00
9:38 AM,73.4,71.6,94,30.22,0.5,NNE,8.1,-,N/A,Fog,Fog,30,2013-01-05 14:38:00
9:53 AM,72.0,71.1,97,30.22,0.5,NE,10.4,16.1,N/A,Fog,Fog,40,2013-01-05 14:53:00
10:00 AM,73.4,71.6,94,30.22,5.0,NNE,8.1,-,N/A,,Overcast,30,2013-01-05 15:00:00
10:53 AM,73.9,71.1,91,30.21,7.0,NE,10.4,-,N/A,,Overcast,50,2013-01-05 15:53:00
11:53 AM,73.0,71.1,93,30.20,7.0,NNE,10.4,-,0.00,,Overcast,30,2013-01-05 16:53:00
12:48 PM,75.2,71.6,89,30.17,8.0,NE,10.4,-,N/A,,Overcast,40,2013-01-05 17:48:00
12:53 PM,75.0,71.1,87,30.17,8.0,NE,8.1,-,N/A,,Overcast,50,2013-01-05 17:53:00
1:26 PM,75.2,71.6,89,30.15,9.0,ENE,8.1,-,0.00,Rain,Light Rain,60,2013-01-05 18:26:00
1:53 PM,75.0,71.1,87,30.15,9.0,NE,9.2,-,0.00,Rain,Light Rain,50,2013-01-05 18:53:00
2:30 PM,78.8,71.6,78,30.13,10.0,ENE,8.1,-,N/A,,Mostly Cloudy,60,2013-01-05 19:30:00
2:53 PM,78.1,72.0,81,30.13,10.0,ENE,8.1,-,N/A,,Scattered Clouds,60,2013-01-05 19:53:00
3:04 PM,78.8,71.6,78,30.13,10.0,East,5.8,-,N/A,,Mostly Cloudy,80,2013-01-05 20:04:00
3:17 PM,78.8,71.6,78,30.13,10.0,East,10.4,18.4,N/A,,Scattered Clouds,90,2013-01-05 20:17:00
3:53 PM,79.0,70.0,74,30.14,10.0,East,13.8,-,N/A,,Clear,80,2013-01-05 20:53:00
4:53 PM,77.0,70.0,79,30.14,10.0,East,10.4,-,N/A,,Scattered Clouds,90,2013-01-05 21:53:00
5:53 PM,75.9,70.0,82,30.15,10.0,East,10.4,-,N/A,,Clear,80,2013-01-05 22:53:00
6:53 PM,75.0,70.0,84,30.17,10.0,East,6.9,-,N/A,,Mostly Cloudy,80,2013-01-05 23:53:00
7:53 PM,75.0,70.0,84,30.18,10.0,East,9.2,-,N/A,,Clear,80,2013-01-06 00:53:00
8:53 PM,73.9,71.1,91,30.19,10.0,East,8.1,-,N/A,,Mostly Cloudy,80,2013-01-06 01:53:00
9:53 PM,75.0,71.1,87,30.20,10.0,East,8.1,-,N/A,,Mostly Cloudy,80,2013-01-06 02:53:00
10:53 PM,73.9,71.1,91,30.19,10.0,ENE,9.2,-,N/A,,Clear,70,2013-01-06 03:53:00
11:53 PM,73.9,71.1,91,30.17,10.0,East,9.2,-,N/A,,Scattered Clouds,80,2013-01-06 04:53:00